Location: Houhaj�rvi
(61.2833°N, 23.0000°E)
Time: 15:49:58
(UTC+00:00)

Cosmos 2016 Rocket - Pass Details

Date: 27 February 2020
Orbit: 948 x 999 km, 83.0° (Epoch: 06 April)

Event Time Altitude Azimuth Distance (km) Brightness Sun altitude
Rises 16:41:09 0° 198° (SSW) 3,618 7.3 -7.4°
Reaches altitude 10° 16:43:38 10° 199° (SSW) 2,680 6.6 -7.7°
Maximum altitude 16:49:46 77° 286° (WNW) 993 4.2 -8.4°
Drops below altitude 10° 16:56:02 10° 13° (NNE) 2,727 6.2 -9.2°
Sets 16:58:34 0° 15° (NNE) 3,686 6.9 -9.5°
